| time (UTC) | temp F | wind direction | speed MPH | gust MPH | rain 1hr in | rain 24hr in | rain mn in | humidity % | barometer mb |
| 20260504130340 | 50 | 0.0 | 0.0 | 0.00 | 0.00 | 0.00 | 51 | 998.2 | |
| 20260504120204 | 47 | 0.0 | 0.0 | 0.00 | 0.00 | 0.00 | 61 | 997.4 | |
| 20260504110418 | 45 | 0.0 | 0.0 | 0.00 | 0.00 | 0.00 | 67 | 996.5 | |
| 20260504100245 | 42 | 0.0 | 0.0 | 0.00 | 0.00 | 0.00 | 71 | 997.5 | |
| 20260504090116 | 42 | 0.0 | 0.0 | 0.00 | 0.00 | 0.00 | 71 | 998.1 | |
| 20260504081511 | 42 | 0.0 | 0.0 | 0.00 | 0.00 | 0.00 | 67 | 998.8 | |
| 20260504081004 | 42 | 0.0 | 0.0 | 0.00 | 0.00 | 0.00 | 66 | 999.2 | |
| 20260504080456 | 42 | 0.0 | 0.0 | 0.00 | 0.00 | 0.00 | 66 | 999.0 | |
| 20260504070209 | 42 | 0.0 | 0.0 | 0.00 | 0.00 | 0.00 | 65 | 1000.2 | |
| 20260504050429 | 43 | 0.0 | 0.0 | 0.00 | 0.00 | 0.00 | 66 | 1001.9 | |
| 20260504045922 | 43 | 0.0 | 0.0 | 0.00 | 0.00 | 0.00 | 66 | 1002.1 | |
| 20260504045415 | 43 | 0.0 | 0.0 | 0.00 | 0.00 | 0.00 | 63 | 1002.1 | |
| 20260504044908 | 43 | 0.0 | 0.0 | 0.00 | 0.00 | 0.00 | 63 | 1001.9 | |
| 20260504044401 | 43 | 0.0 | 0.0 | 0.00 | 0.00 | 0.00 | 63 | 1002.5 | |
| 20260504043854 | 43 | 0.0 | 0.0 | 0.00 | 0.00 | 0.00 | 61 | 1002.2 | |
| 20260504043347 | 43 | 0.0 | 0.0 | 0.00 | 0.00 | 0.00 | 60 | 1002.4 | |
| 20260504042841 | 43 | 0.0 | 0.0 | 0.00 | 0.00 | 0.00 | 60 | 1002.2 | |
| 20260504042333 | 44 | 0.0 | 0.0 | 0.00 | 0.00 | 0.00 | 59 | 1002.3 | |
| 20260504041826 | 44 | 0.0 | 0.0 | 0.00 | 0.00 | 0.00 | 59 | 1002.5 | |
| 20260504041314 | 44 | 0.0 | 0.0 | 0.00 | 0.00 | 0.00 | 60 | 1002.8 | |
| 20260504040807 | 44 | 0.0 | 0.0 | 0.00 | 0.00 | 0.00 | 58 | 1002.6 | |
| 20260504040301 | 44 | 0.0 | 0.0 | 0.00 | 0.00 | 0.00 | 57 | 1002.6 | |
| 20260504035751 | 44 | 0.0 | 0.0 | 0.00 | 0.00 | 0.00 | 58 | 1003.0 | |
| 20260504035243 | 44 | 0.0 | 0.0 | 0.00 | 0.00 | 0.00 | 56 | 1003.3 | |
| 20260504034735 | 44 | 0.0 | 0.0 | 0.00 | 0.00 | 0.00 | 56 | 1003.1 | |
| 20260504034228 | 44 | 0.0 | 0.0 | 0.00 | 0.00 | 0.00 | 54 | 1003.3 | |
| 20260504033720 | 45 | 0.0 | 0.0 | 0.00 | 0.00 | 0.00 | 54 | 1003.1 | |
| 20260504033213 | 45 | 0.0 | 0.0 | 0.00 | 0.00 | 0.00 | 53 | 1003.3 | |
| 20260504032706 | 45 | 0.0 | 0.0 | 0.00 | 0.00 | 0.00 | 53 | 1003.5 | |
| 20260504032159 | 45 | 0.0 | 0.0 | 0.00 | 0.00 | 0.00 | 52 | 1003.5 | |
| 20260504031652 | 46 | 0.0 | 0.0 | 0.00 | 0.00 | 0.00 | 51 | 1003.4 | |
| 20260504031145 | 46 | 0.0 | 0.0 | 0.00 | 0.00 | 0.00 | 51 | 1003.6 | |
| 20260504030638 | 46 | 0.0 | 0.0 | 0.00 | 0.00 | 0.00 | 50 | 1003.5 | |
| 20260504030131 | 47 | 0.0 | 0.0 | 0.00 | 0.00 | 0.00 | 49 | 1003.6 | |
| 20260504025623 | 47 | 0.0 | 0.0 | 0.00 | 0.00 | 0.00 | 48 | 1003.7 | |
| 20260504025116 | 47 | 0.0 | 0.0 | 0.00 | 0.00 | 0.00 | 48 | 1003.5 | |
| 20260504024609 | 47 | 0.0 | 0.0 | 0.00 | 0.00 | 0.00 | 47 | 1003.5 | |
| 20260504024102 | 47 | 0.0 | 0.0 | 0.00 | 0.00 | 0.00 | 46 | 1003.5 | |
| 20260504023556 | 48 | 0.0 | 0.0 | 0.00 | 0.00 | 0.00 | 46 | 1003.8 | |
| 20260504023049 | 48 | 0.0 | 0.0 | 0.00 | 0.00 | 0.00 | 45 | 1003.7 | |
| 20260504022542 | 49 | 0.0 | 0.0 | 0.00 | 0.00 | 0.00 | 45 | 1003.6 | |
| 20260504022034 | 49 | 0.0 | 0.0 | 0.00 | 0.00 | 0.00 | 43 | 1003.8 | |
| 20260504021526 | 50 | 0.0 | 0.0 | 0.00 | 0.00 | 0.00 | 42 | 1003.9 | |
| 20260504021019 | 50 | 0.0 | 0.0 | 0.00 | 0.00 | 0.00 | 42 | 1003.7 | |
| 20260504020512 | 50 | 0.0 | 0.0 | 0.00 | 0.00 | 0.00 | 41 | 1004.0 | |
| 20260504020004 | 51 | 0.0 | 0.0 | 0.00 | 0.00 | 0.00 | 41 | 1003.9 | |
| 20260504015452 | 51 | 0.0 | 0.0 | 0.00 | 0.00 | 0.00 | 40 | 1003.8 | |
| 20260504014945 | 51 | 0.0 | 0.0 | 0.00 | 0.00 | 0.00 | 40 | 1003.9 | |
| 20260504014437 | 52 | 0.0 | 0.0 | 0.00 | 0.00 | 0.00 | 40 | 1003.6 | |
| 20260504013921 | 52 | 0.0 | 0.0 | 0.00 | 0.00 | 0.00 | 39 | 1003.7 | |
| 20260504013413 | 53 | 0.0 | 0.0 | 0.00 | 0.00 | 0.00 | 38 | 1003.6 | |
| 20260504012907 | 53 | 0.0 | 0.0 | 0.00 | 0.00 | 0.00 | 37 | 1003.9 | |
| 20260504012359 | 53 | 0.0 | 0.0 | 0.00 | 0.00 | 0.00 | 37 | 1003.8 | |
| 20260504011851 | 54 | 0.0 | 0.0 | 0.00 | 0.00 | 0.00 | 36 | 1004.0 | |
| 20260504011343 | 54 | 0.0 | 0.0 | 0.00 | 0.00 | 0.00 | 35 | 1004.1 | |
| 20260504010836 | 55 | 0.0 | 0.0 | 0.00 | 0.00 | 0.00 | 34 | 1003.9 | |
| 20260504010328 | 55 | 0.0 | 0.0 | 0.00 | 0.00 | 0.00 | 34 | 1004.2 | |
| 20260504005821 | 56 | 0.0 | 0.0 | 0.00 | 0.00 | 0.00 | 33 | 1004.0 | |
| 20260504005314 | 56 | 0.0 | 0.0 | 0.00 | 0.00 | 0.00 | 33 | 1003.9 | |
| 20260504004807 | 56 | 0.0 | 0.0 | 0.00 | 0.00 | 0.00 | 32 | 1004.3 | |
| 20260504004301 | 57 | 0.0 | 0.0 | 0.00 | 0.00 | 0.00 | 33 | 1003.9 | |
| 20260504003753 | 57 | 0.0 | 0.0 | 0.00 | 0.00 | 0.00 | 33 | 1004.2 | |
| 20260504003246 | 57 | 0.0 | 0.0 | 0.00 | 0.00 | 0.00 | 32 | 1004.3 | |
| 20260504002739 | 57 | 0.0 | 0.0 | 0.00 | 0.00 | 0.00 | 31 | 1004.4 | |
| 20260504002227 | 57 | 0.0 | 0.0 | 0.00 | 0.00 | 0.00 | 31 | 1004.3 | |
| 20260504001721 | 58 | 0.0 | 0.0 | 0.00 | 0.00 | 0.00 | 31 | 1004.3 | |
| 20260504001213 | 58 | 0.0 | 0.0 | 0.00 | 0.00 | 0.00 | 31 | 1004.3 | |
| 20260504000705 | 58 | 0.0 | 0.0 | 0.00 | 0.00 | 0.00 | 30 | 1004.8 | |
| 20260504000158 | 58 | 0.0 | 0.0 | 0.00 | 0.00 | 0.00 | 30 | 1004.7 | |
| 20260503235652 | 58 | 0.0 | 0.0 | 0.00 | 0.00 | 0.00 | 29 | 1004.5 | |
| 20260503235144 | 59 | 0.0 | 0.0 | 0.00 | 0.00 | 0.00 | 30 | 1004.6 | |
| 20260503234637 | 58 | 0.0 | 0.0 | 0.00 | 0.00 | 0.00 | 28 | 1004.6 | |
| 20260503234130 | 59 | 0.0 | 0.0 | 0.00 | 0.00 | 0.00 | 29 | 1004.5 | |
| 20260503233623 | 59 | 0.0 | 0.0 | 0.00 | 0.00 | 0.00 | 29 | 1004.7 | |
| 20260503233115 | 58 | 0.0 | 0.0 | 0.00 | 0.00 | 0.00 | 28 | 1004.8 | |
| 20260503232608 | 59 | 0.0 | 0.0 | 0.00 | 0.00 | 0.00 | 29 | 1004.6 | |
| 20260503232100 | 58 | 0.0 | 0.0 | 0.00 | 0.00 | 0.00 | 29 | 1004.4 | |
| 20260503231553 | 58 | 0.0 | 0.0 | 0.00 | 0.00 | 0.00 | 29 | 1004.6 | |
| 20260503231046 | 59 | 0.0 | 0.0 | 0.00 | 0.00 | 0.00 | 29 | 1004.6 | |
| 20260503230538 | 59 | 0.0 | 0.0 | 0.00 | 0.00 | 0.00 | 29 | 1004.8 | |
| 20260503225958 | 59 | 0.0 | 0.0 | 0.00 | 0.00 | 0.00 | 28 | 1005.0 | |
| 20260503225452 | 59 | 0.0 | 0.0 | 0.00 | 0.00 | 0.00 | 28 | 1004.9 | |
| 20260503224944 | 59 | 0.0 | 0.0 | 0.00 | 0.00 | 0.00 | 26 | 1004.9 | |
| 20260503224436 | 59 | 0.0 | 0.0 | 0.00 | 0.00 | 0.00 | 26 | 1004.9 | |
| 20260503223929 | 60 | 0.0 | 0.0 | 0.00 | 0.00 | 0.00 | 27 | 1005.0 | |
| 20260503223419 | 59 | 0.0 | 0.0 | 0.00 | 0.00 | 0.00 | 27 | 1004.9 | |
| 20260503222912 | 59 | 0.0 | 0.0 | 0.00 | 0.00 | 0.00 | 28 | 1004.7 | |
| 20260503222404 | 59 | 0.0 | 0.0 | 0.00 | 0.00 | 0.00 | 28 | 1004.9 | |
| 20260503221856 | 60 | 0.0 | 0.0 | 0.00 | 0.00 | 0.00 | 27 | 1004.7 | |
| 20260503221349 | 60 | 0.0 | 0.0 | 0.00 | 0.00 | 0.00 | 27 | 1004.7 | |
| 20260503220843 | 60 | 0.0 | 0.0 | 0.00 | 0.00 | 0.00 | 26 | 1004.9 | |
| 20260503220334 | 60 | 0.0 | 0.0 | 0.00 | 0.00 | 0.00 | 27 | 1004.9 | |
| 20260503215826 | 60 | 0.0 | 0.0 | 0.00 | 0.00 | 0.00 | 28 | 1004.8 | |
| 20260503215319 | 59 | 0.0 | 0.0 | 0.00 | 0.00 | 0.00 | 27 | 1005.0 | |
| 20260503214812 | 60 | 0.0 | 0.0 | 0.00 | 0.00 | 0.00 | 27 | 1004.9 | |
| 20260503214304 | 60 | 0.0 | 0.0 | 0.00 | 0.00 | 0.00 | 26 | 1004.8 | |
| 20260503213757 | 59 | 0.0 | 0.0 | 0.00 | 0.00 | 0.00 | 26 | 1004.8 | |
| 20260503213248 | 59 | 0.0 | 0.0 | 0.00 | 0.00 | 0.00 | 26 | 1005.0 | |
| 20260503212741 | 59 | 0.0 | 0.0 | 0.00 | 0.00 | 0.00 | 24 | 1004.8 | |
| 20260503212233 | 60 | 0.0 | 0.0 | 0.00 | 0.00 | 0.00 | 24 | 1004.9 | |
| 20260503211726 | 60 | 0.0 | 0.0 | 0.00 | 0.00 | 0.00 | 24 | 1005.3 | |
| 20260503211219 | 60 | 0.0 | 0.0 | 0.00 | 0.00 | 0.00 | 28 | 1005.1 | |
| 20260503210710 | 59 | 0.0 | 0.0 | 0.00 | 0.00 | 0.00 | 28 | 1005.2 | |
| 20260503210203 | 59 | 0.0 | 0.0 | 0.00 | 0.00 | 0.00 | 26 | 1005.2 | |
| 20260503205656 | 60 | 0.0 | 0.0 | 0.00 | 0.00 | 0.00 | 27 | 1005.5 | |
| 20260503205149 | 59 | 0.0 | 0.0 | 0.00 | 0.00 | 0.00 | 27 | 1005.3 | |
| 20260503204642 | 60 | 0.0 | 0.0 | 0.00 | 0.00 | 0.00 | 27 | 1005.5 | |
| 20260503204135 | 59 | 0.0 | 0.0 | 0.00 | 0.00 | 0.00 | 26 | 1005.4 | |
| 20260503203628 | 60 | 0.0 | 0.0 | 0.00 | 0.00 | 0.00 | 27 | 1005.6 | |
| 20260503203121 | 60 | 0.0 | 0.0 | 0.00 | 0.00 | 0.00 | 29 | 1005.9 | |
| 20260503202614 | 68 | 0.0 | 0.0 | 0.00 | 0.00 | 0.00 | 26 | 1005.7 | |
| 20260503202107 | 60 | 0.0 | 0.0 | 0.00 | 0.00 | 0.00 | 29 | 1005.8 | |
| 20260503201558 | 60 | 0.0 | 0.0 | 0.00 | 0.00 | 0.00 | 27 | 1005.8 | |
| 20260503201052 | 60 | 0.0 | 0.0 | 0.00 | 0.00 | 0.00 | 27 | 1005.9 | |
| 20260503200537 | 69 | 0.0 | 0.0 | 0.00 | 0.00 | 0.00 | 29 | 1006.1 | |
| 20260503200025 | 69 | 0.0 | 0.0 | 0.00 | 0.00 | 0.00 | 29 | 1006.2 | |
| 20260503195518 | 69 | 0.0 | 0.0 | 0.00 | 0.00 | 0.00 | 29 | 1006.2 | |
| 20260503195011 | 69 | 0.0 | 0.0 | 0.00 | 0.00 | 0.00 | 30 | 1006.0 | |
| 20260503194503 | 70 | 0.0 | 0.0 | 0.00 | 0.00 | 0.00 | 28 | 1006.4 | |
| 20260503193957 | 69 | 0.0 | 0.0 | 0.00 | 0.00 | 0.00 | 29 | 1006.2 | |
| 20260503193449 | 69 | 0.0 | 0.0 | 0.00 | 0.00 | 0.00 | 29 | 1006.5 | |
| 20260503192942 | 69 | 0.0 | 0.0 | 0.00 | 0.00 | 0.00 | 30 | 1006.2 | |
| 20260503192433 | 69 | 0.0 | 0.0 | 0.00 | 0.00 | 0.00 | 28 | 1006.3 | |
| 20260503191926 | 69 | 0.0 | 0.0 | 0.00 | 0.00 | 0.00 | 28 | 1006.5 | |
| 20260503191417 | 69 | 0.0 | 0.0 | 0.00 | 0.00 | 0.00 | 31 | 1006.3 | |
| 20260503190910 | 68 | 0.0 | 0.0 | 0.00 | 0.00 | 0.00 | 29 | 1006.6 | |
| 20260503190357 | 68 | 0.0 | 0.0 | 0.00 | 0.00 | 0.00 | 29 | 1006.4 | |
| 20260503185850 | 68 | 0.0 | 0.0 | 0.00 | 0.00 | 0.00 | 30 | 1006.7 | |
| 20260503185343 | 68 | 0.0 | 0.0 | 0.00 | 0.00 | 0.00 | 29 | 1006.7 | |
| 20260503184835 | 68 | 0.0 | 0.0 | 0.00 | 0.00 | 0.00 | 28 | 1006.5 | |
| 20260503184324 | 68 | 0.0 | 0.0 | 0.00 | 0.00 | 0.00 | 30 | 1006.8 | |
| 20260503183817 | 67 | 0.0 | 0.0 | 0.00 | 0.00 | 0.00 | 29 | 1006.5 | |
| 20260503183305 | 67 | 0.0 | 0.0 | 0.00 | 0.00 | 0.00 | 32 | 1006.9 | |
| 20260503182757 | 68 | 0.0 | 0.0 | 0.00 | 0.00 | 0.00 | 29 | 1006.6 | |
| 20260503182249 | 68 | 0.0 | 0.0 | 0.00 | 0.00 | 0.00 | 27 | 1006.9 | |
| 20260503181740 | 68 | 0.0 | 0.0 | 0.00 | 0.00 | 0.00 | 30 | 1006.9 | |
| 20260503181227 | 68 | 0.0 | 0.0 | 0.00 | 0.00 | 0.00 | 28 | 1006.9 | |
| 20260503180719 | 69 | 0.0 | 0.0 | 0.00 | 0.00 | 0.00 | 30 | 1007.0 | |
| 20260503180207 | 68 | 0.0 | 0.0 | 0.00 | 0.00 | 0.00 | 31 | 1007.1 | |
| 20260503175700 | 68 | 0.0 | 0.0 | 0.00 | 0.00 | 0.00 | 30 | 1007.3 | |
| 20260503175153 | 67 | 0.0 | 0.0 | 0.00 | 0.00 | 0.00 | 30 | 1007.2 | |
| 20260503174646 | 68 | 0.0 | 0.0 | 0.00 | 0.00 | 0.00 | 31 | 1007.2 | |
| 20260503174133 | 66 | 0.0 | 0.0 | 0.00 | 0.00 | 0.00 | 33 | 1007.2 | |
| 20260503173626 | 66 | 0.0 | 0.0 | 0.00 | 0.00 | 0.00 | 32 | 1007.0 | |
| 20260503173118 | 67 | 0.0 | 0.0 | 0.00 | 0.00 | 0.00 | 33 | 1007.3 | |
| 20260503172606 | 65 | 0.0 | 0.0 | 0.00 | 0.00 | 0.00 | 31 | 1007.1 | |
| 20260503172059 | 67 | 0.0 | 0.0 | 0.00 | 0.00 | 0.00 | 32 | 1007.3 | |
| 20260503171552 | 67 | 0.0 | 0.0 | 0.00 | 0.00 | 0.00 | 34 | 1007.2 | |
| 20260503171045 | 67 | 0.0 | 0.0 | 0.00 | 0.00 | 0.00 | 32 | 1007.0 | |
| 20260503170532 | 66 | 0.0 | 0.0 | 0.00 | 0.00 | 0.00 | 33 | 1007.0 | |
| 20260503150709 | 62 | 0.0 | 0.0 | 0.00 | 0.00 | 0.00 | 39 | 1006.6 | |
| 20260503150200 | 62 | 0.0 | 0.0 | 0.00 | 0.00 | 0.00 | 40 | 1006.8 |